Regional Weather Roundup
Issued by NWS Charleston, SC

Current Version | Previous Version | Graphics & Text | Print | Product List | Glossary On
Versions: 1 2 3 4 5 6 7 8 9 10 11 12 13 14 15 16 17 18 19 20 21 22 23 24 25 26 27 28 29 30 31 32 33 34 35 36 37 38 39 40 41 42 43 44 45 46 47 48 49 50
982 ASUS42 KCHS 211812 RWRCHS REGIONAL WEATHER ROUNDUP NATIONAL WEATHER SERVICE CHARLESTON SC 100 PM EST TUE NOV 21 2017 NOTE: "FAIR" INDICATES FEW OR NO CLOUDS BELOW 12,000 FEET WITH NO SIGNIFICANT WEATHER AND/OR OBSTRUCTIONS TO VISIBILITY. NOT ALL STATIONS ARE QUALITY CONTROLLED. USE DATA WITH CAUTION... ESPECIALLY DEWPOINT OBSERVATIONS. SCZ027-030-031-034>040-042>050-211900- ...SOUTHEAST SOUTH CAROLINA... CITY SKY/WX TMP DP RH WIND PRES REMARKS N CHARLESTON PTSUNNY 72 57 59 E9 30.07F 6HR MIN TEMP: 48; 6HR MAX TEMP: 73; WATERFRONT PRK NOT AVBL JOHNS ISLAND FAIR 72 59 64 E12 30.07F PINOPOLIS N/A 64 55 72 E7 30.01F MONCKS CORNER FAIR 70 52 52 E5 30.08F SUMMERVILLE FAIR 70 55 60 CALM 30.08F BEAUFORT MCAS CLOUDY 71 59 65 E5 30.06F 6HR MIN TEMP: 51; 6HR MAX TEMP: 72; BEAUFORT ARPT MOCLDY 70 57 64 NE7 30.06F HILTON HEAD IS PTSUNNY 68 59 73 NE8 30.07F WALTERBORO CLOUDY 70 55 60 E5 30.07F ALLENDALE MOCLDY 66 54 63 E3 30.06F ...SOUTHERN MIDLANDS AND PEE DEE... CITY SKY/WX TMP DP RH WIND PRES REMARKS GEORGETOWN FAIR 66 55 68 NE7 30.10F KINGSTREE FAIR 63 50 63 E3 30.11F ORANGEBURG CLOUDY 65 51 60 E5 30.08F 6HR MIN TEMP: 47; 6HR MAX TEMP: 65; BARNWELL N/A 64 54 68 E5 30.08F AIKEN CLOUDY 61 50 67 SE5 30.11F MANNING FAIR 64 45 48 MISG 30.09F COLUMBIA CLOUDY 60 49 66 E5 30.10F 6HR MIN TEMP: 36; 6HR MAX TEMP: 60; SUMTER CLOUDY 64 49 59 E7 30.07F 6HR MIN TEMP: 39; 6HR MAX TEMP: 64; FLORENCE CLOUDY 65 50 58 E7 30.12F 6HR MIN TEMP: 38; 6HR MAX TEMP: 65; MYRTLE BEACH MOSUNNY 67 54 63 E9 30.12F N MYRTLE BEACH CLOUDY 69 53 56 E13G20 30.11F 6HR MIN TEMP: 42; 6HR MAX TEMP: 70; $$ GAZ063-065-086>088-099>101-113>116-118-119-134>141-150-211900- ...SOUTHEAST GEORGIA... CITY SKY/WX TMP DP RH WIND PRES REMARKS SAVANNAH ARPT CLOUDY 73 58 59 E12 30.05F 6HR MIN TEMP: 52; 6HR MAX TEMP: 73; HUNTER AAF CLOUDY 71 60 67 E10 30.02F 6HR MIN TEMP: 54; 6HR MAX TEMP: 71; FORT STEWART CLOUDY 71 59 64 E8 30.02F 6HR MIN TEMP: 53; 6HR MAX TEMP: 71; 6HR PCP: TRACE; STATESBORO DRIZZLE 66 52 60 CALM 30.06F SYLVANIA CLOUDY 68 57 69 SE5 30.08F CLAXTON MOCLDY 67 60 77 N5 30.06F ...CSRA...CENTRAL AND FAR SOUTHEAST GEORGIA... CITY SKY/WX TMP DP RH WIND PRES REMARKS THOMSON CLOUDY 65 52 64 S3 30.13F AUGUSTA-BUSH CLOUDY 65 51 60 CALM 30.07F 6HR MIN TEMP: 46; 6HR MAX TEMP: 65; AUGUSTA-DANIEL CLOUDY 65 51 60 SE7 30.08F SWAINSBORO MOCLDY 64 55 72 E5 30.06F VIDALIA PTSUNNY 68 59 73 E3 30.06F EASTMAN MOCLDY 67 48 50 E5 30.07F HAZLEHURST FAIR 68 52 56 CALM 30.04F ALMA CLOUDY 72 59 63 SE5 30.03F 6HR MIN TEMP: 53; 6HR MAX TEMP: 72; WAYCROSS CLOUDY 72 58 62 SE5 30.03F JESUP LGT RAIN 70 63 78 CALM 30.05S BAXLEY CLOUDY 68 59 73 NE3 30.04F BRUNSWICK CLOUDY 70 61 73 SE5 30.04F SAINT SIMONS CLOUDY 71 64 78 E6 30.02F 6HR MIN TEMP: 60; 6HR MAX TEMP: 73; 6HR PCP: 0.03; $$ SCZ027-028-034-036>038-045-046-048>050-GAZ119-141-211900- ...LAKE AND SUPPLEMENTAL COASTAL OBSERVATIONS... STATION/POSITION TIME TEMP WIND PRES WAVE SWELL AIR SEA DIR/SP/G HT/PER HT/PER/DIR (UTC) (F) (DEG/KT/KT) (MB) (FT/S) (FT/S/D) WINYAH BAY 1645 59 50/ 10 1021.0 LAKE MURRAY 1720 59 110/ 2/ 6 1019.0F ACE BASIN NERRS 1645 70 30/ 3 1019.0 FORT PULASKI 1748 64 61 60/ 11/ 14 1018.0F SAPELO ISLAND 1700 71 100/ 4 1017.0 $$ ANZ835-935-AMZ111-154-330-350-352-354-370-450-454-472-211900- ...C-MAN AND BUOY OBSERVATIONS... STATION/POSITION TIME TEMP WIND PRES WAVE SWELL AIR SEA DIR/SP/G HT/PER HT/PER/DIR (UTC) (F) (DEG/KT/KT) (MB) (FT/S) (FT/S/D) BUOY 41004 1750 73 74 130/ 14/ 16 1017.9F 5/ 6 2/110/ 8 BUOY 41008 1750 70 68 100/ 8/ 10 1016.7F 4/ 7 3/110/ 7 FOLLY BEACH CMAN 1800 63 50/ 15/ 18 1018.8F CAPERS NEARSHORE 1708 61 63 50/ 14/ 19 1019.2F FRIPP NEARSHORE 1708 62 62 50/ 12/ 21 1018.7F STATION/POSITION TIME TEMP WIND PRES WAVE SWELL AIR SEA DIR/SP/G HT/PER HT/PER/DIR (UTC) (F) (DEG/KT/KT) (MB) (FT/S) (FT/S/D) 5E ST. MARYS GA 1700 68 N/A 4/ 6 FRYING PAN BUOY 1750 71 71 130/ 14/ 19 1019.3F 3/ 5 2/ 90/ 8 BUOY 41025 1800 70 77 170/ 12/ 16 1022.4 CAPE LOOKOUT NC 1700 40/ 10/ 11 1022.8F BUOY 41002 1750 73 77 110/ 16/ 21 1020.0F 5/ 6 BUOY 41010 NOT AVBL ST AUGUSTINE FL 1800 71 68 100/ 4/ 5 1015.7F $$

USA.gov is the U.S. government's official web portal to all federal, state and local government web resources and services.